Погода в Малой Томке

Россия / Новосибирская область     54°17′25″N   84°24′56″E
темп.,
°C
ветер,
м/с
пор.,
м/с
влажн.,
%
обл.,
%
осадки,
мм/ч
давл.,
гПа
погр.,
м
9 декабря, чт
чт901:00−30юз11100100 0.1 10439
04:00−31ююз1110099 0.0 10449
07:00−32ю21100100 0.0 104610
10:00−26ю25100100 0.0 1047100
13:00−21ююз369790 0.1 1047208
16:00−21ююз3697100 0.0 1048189
19:00−23ю25100100 0.0 104987
22:00−22ю2698100 0.0 1049126
10 декабря, пт
пт1001:00−26ююв2210078 0.0 105014
04:00−25ю2610089 0.0 104895
07:00−20ю3109798 0.0 1047254
10:00−17ю41196100 0.1 1046352
13:00−14ююз51194100 0.6 1045425
16:00−12ююз41094100 0.3 1044496
19:00−12ююз4995100 0.6 1044339
22:00−12ююз399588 0.3 1044300
11 декабря, сб
сб1101:00−12ю389570 0.3 1043248
04:00−13ю3894100 0.0 1043203
07:00−16ююв2695100 0.0 104289
10:00−14ююв3988100 0.0 1040193
13:00−11ю3984100 0.0 1037228
16:00−9ю3985100 0.0 1034247
19:00−10ю31086100 0.0 1032219
22:00−11ю41282100 0.0 1030258
12 декабря, вс
вс1201:00−11ю3984100 0.0 1028213
04:00−15ююв229493 0.0 102626
07:00−15ю2494100 0.0 102566
10:00−15ююз1397100 0.0 102452
13:00−11з3593100 0.0 1024240
16:00−11зсз2595100 0.0 1024277
19:00−16зсз279873 0.0 1026103
22:00−24зсз2210089 0.0 103011
13 декабря, пн
пн1301:00−27зсз1110099 0.0 10319
04:00−28зюз1110099 0.0 10339
07:00−29юз1110099 0.1 10349
10:00−22ююз25100100 0.1 1034129
13:00−18ююз3696100 0.4 1033273
16:00−16ююз3996100 0.6 1031390
19:00−15ююз41096100 1.6 1029501
22:00−14ююз41095100 1.1 1027604